Preview of NWS' New Version of Forecast
This preview is not operational and should not be used for support decisions.

Regional Weather Roundup (RWR)

Issued by National Weather Service (NWS)

                            
000
ASUS46 KSEW 180910
RWRWA 

WASHINGTON REGIONAL WEATHER ROUNDUP
NATIONAL WEATHER SERVICE SEATTLE WA
100 AM PST MON FEB 18 2019

NOTE:"FAIR" INDICATES FEW OR NO CLOUDS BELOW 12,000 FEET WITH NO 
SIGNIFICANT WEATHER AND/OR OBSTRUCTIONS TO VISIBILITY.

WAZ507-509-555>559-181000-
SEATTLE, TACOMA, EVERETT, AND VICINITY
  
CITY           SKY/WX    TMP DP  RH WIND       PRES   REMARKS
EVERETT        MOCLDY    34  30  85 SE3       30.34R                  
BOEING FIELD   CLOUDY    35  32  88 SE7       30.36R                  
RENTON         CLOUDY    35  32  88 SE3       30.36R                  
SEATAC AIRPORT CLOUDY    36  33  89 SE6       30.34R                  
JBLM-MCCHORD   CLOUDY    32  32 100 S3        30.35R                  
PUYALLUP       CLOUDY    30  30 100 CALM      30.34R FOG              
BREMERTON      CLOUDY    32  32 100 CALM      30.35R                  
JBLM-FT LEWIS  NOT AVBL                                               
TACOMA NARROWS CLOUDY    37  35  92 SE3       30.35R                  
$$
 
WAZ001-503-506-510-514-515-181000-
NORTH INTERIOR
  
CITY           SKY/WX    TMP DP  RH WIND       PRES   REMARKS
BELLINGHAM     CLEAR     33  18  53 NE9       30.35R                  
FRIDAY HARBOR  CLEAR     36  21  54 VRB6      30.36R                  
EASTSOUND      CLEAR     37  19  48 VRB5      30.36S                  
PORT ANGELES   CLOUDY    37  31  78 SW8       30.35R                  
EDIZ HOOK      CLOUDY    40  36  84 W3        30.36R                  
PORT TOWNSEND  CLOUDY    32  32 100 CALM      30.35R                  
NAS WHIDBEY    CLEAR     33  24  69 VRB5      30.39R                  
ARLINGTON      FOG       25  21  86 CALM      30.36R VSB 1            
BURLINGTON     MOCLDY    30  28  93 NE5       30.36R                  
$$
 
WAZ020-022-039-040-504-511-512-181000-
SOUTHWEST INTERIOR
  
CITY           SKY/WX    TMP DP  RH WIND       PRES   REMARKS
SHELTON        FOG       29  26  89 CALM      30.33R VSB 3/4          
OLYMPIA        CLOUDY    27  27 100 CALM      30.35S FOG              
CHEHALIS       MOCLDY    32  32 100 CALM      30.36R                  
KELSO          MOCLDY    30  29  96 CALM      30.38R                  
VANCOUVER      CLEAR     30  27  88 CALM      30.36R                  
SCAPPOOSE, OR  CLEAR     31  27  85 CALM      30.36R                  
PORTLAND, OR   PTCLDY    35  31  85 CALM      30.36R                  
$$
 
WAZ021-516-517-181000-
WASHINGTON COAST
  
CITY           SKY/WX    TMP DP  RH WIND       PRES   REMARKS
FORKS          MOCLDY    30  28  92 CALM      30.35R                  
HOQUIAM        CLEAR     32  30  92 NE6       30.35R                  
ASTORIA, OR    MOCLDY    32  31  96 SE5       30.36R                  
$$
 
WAZ019-023-024-040-567>569-181000-
CASCADE MOUNTAINS AND COLUMBIA GORGE
  
CITY           SKY/WX    TMP DP  RH WIND       PRES   REMARKS
STAMPEDE PASS  FOG       24  21  88 VRB3      30.17R VSB 1/2          
TROUTDALE, OR  CLOUDY    33  31  92 CALM      30.36R FOG              
HOOD RIVER, OR CLOUDY    34  32  93 CALM      30.33R                  
THE DALLES, OR CLOUDY    33  31  92 NE3       30.35R FOG              
$$

WAZ026-027-041>044-520-521-181000-
EAST SLOPES
  
CITY           SKY/WX    TMP DP  RH WIND       PRES   REMARKS
OMAK           CLEAR     24  12  60 N14       30.32S WCI  12          
WENATCHEE      CLEAR     24  15  68 E8        30.32R                  
ELLENSBURG     CLOUDY    29  25  85 CALM      30.28R                  
YAKIMA         FLURRIES  31  28  89 W3        30.32R                  
SUNNYSIDE ARPT CLOUDY    32  24  73 CALM      30.34                   
YAKIMA TC      FLURRIES  28  26  91 CALM      30.29S                  
$$

WAZ028-034-035-181000-
COLUMBIA BASIN
  
CITY           SKY/WX    TMP DP  RH WIND       PRES   REMARKS
EPHRATA        CLOUDY    22  17  81 NW7       30.32R                  
MOSES LAKE     CLOUDY     1 N/A N/A N7        30.33R                  
PASCO          CLOUDY    29  21  72 N7        30.37R                  
RICHLAND ARPT  PTSUNNY   29  23  79 CALM      30.37R                  
HERMISTON, OR  CLOUDY    31  24  75 NW5       30.32R                  
$$

WAZ036>038-181000-
NORTHEAST WASHINGTON
  
CITY           SKY/WX    TMP DP  RH WIND       PRES   REMARKS
SPOKANE GEIGER PTCLDY    13   4  67 N3        30.23R                  
SPOKANE FELTS  PTCLDY    14  10  84 CALM      30.27S                  
FAIRCHILD AFB  PTCLDY    14   4  64 NE8       30.22R                  
COEURDALENE,ID CLEAR     10   4  76 NE9       30.25R                  
DEER PARK      CLEAR      0  -3  87 NW5       30.26R                  
$$

WAZ029>033-181000-
SOUTHEAST WASHINGTON
  
CITY           SKY/WX    TMP DP  RH WIND       PRES   REMARKS
PULLMAN        CLEAR     15  10  80 N8        30.18R                  
LEWISTON, ID   CLOUDY    29  22  75 NW13      30.23R WCI  19          
WALLA WALLA    CLOUDY    26  22  84 N5        30.27R                  
PENDLETON, OR  CLOUDY    29  27  92 NW7       30.26R                  
$$